Location: Vihti�l�
(61.3833°N, 23.0667°E)
Time: 03:53:22
(UTC+00:00)

NOSS 3-1 (C) - Pass Details

Date: 29 November 2020
Orbit: 738 x 1470 km, 63.4° (Epoch: 18 January)

Event Time Altitude Azimuth Distance (km) Brightness Sun altitude
Exits shadow 02:20:08 74° 28° (NNE) 1,113 3.7 -32.6°
Drops below altitude 10° 02:27:17 10° 82° (E) 3,172 7.0 -31.7°
Sets 02:30:19 0° 84° (E) 4,245 8.0 -31.4°
